Tracking 18980 objects as of 18-Feb-2018
HD Live streaming from Space Station
objects crossing your sky now

FENGYUN 1C DEB

Track FENGYUN 1C DEB now!
10-day predictions


NORAD ID: 30007
Int'l Code: 1999-025MG
Perigee: 806.2 km
Apogee: 916.5 km
Inclination: 99.2 °
Period: 102.0 minutes
Semi major axis: 7232 km
RCS: 0.069 m2 (small)
Launch date: May 10, 1999
Source: People's Republic of China (PRC)
Launch site: Taiyaun Space Center, China (TSC)

Note: This is SATELLITE DEBRIS
aabbcc
Your satellite tracking list
Your tracking list is empty




NASA's NSSDC Master Catalog

Two Line Element Set (TLE):
1 30007U 99025MG  18048.92840587 +.00000648 +00000-0 +37204-3 0  9996
2 30007 099.1745 173.6023 0076265 127.6529 346.1371 14.11519265569759
Source of the keplerian elements: AFSPC